Location: Unspecified
(54.1780°N, 0.0000°E)
Time: 08:21:29
(UTC+00:00)

Explorer 7 - Pass Details

Date: 19 June 2019
Orbit: 485 x 680 km, 50.3° (Epoch: 22 July)

Event Time Altitude Azimuth Distance (km) Brightness Sun altitude
Rises 10:05:43 0° 215° (SW) 2,818 10.5 52.4°
Reaches altitude 10° 10:08:16 10° 202° (SSW) 1,956 10.0 52.7°
Maximum altitude 10:11:54 24° 148° (SSE) 1,296 9.9 53.1°
Drops below altitude 10° 10:15:42 10° 94° (E) 2,054 10.3 53.4°
Sets 10:18:26 0° 82° (E) 2,994 10.8 53.7°
